Theta_e
320 318 316 314 313 313 312 312 311 310 310 311 311 309 308 308 310 313 312 310 310 310
315 315 313 313 313 312 311 309 309 309 308 308 308 307 307 306 309 311 308 306 306 307
315 315 313 313 311 310 309 309 308 308 308 308 307 307 307 307 309 307 306 305 304 304
313 314 313 312 310 308 308 308 308 308 308 308 307 306 307 308 307 305 304 304 303 303
314 313 311 310 308 308 307 308 308 308 308 307 306 307 307 306 305 304 302 302 301 301
313 312 310 309 308 308 307 307 307 307 306 306 306 305 305 305 304 303 302 301 301 300
313 312 311 309 308 307 307 306 305 306 305 305 305 304 303 303 301 301 301 301 301 300
314 311 309 308 307 306 306 305 305 303 302 302 304 303 301 301 300 299 299 299 300 301
311 310 308 307 305 305 304 302 302 301 300 300 302 302 302 300 299 299 298 297 298 299
310 307 305 304 303 302 300 300 298 298 299 299 299 300 300 301 299 298 297 297 297 298
304 303 303 302 300 299 299 298 298 297 297 297 297 298 298 299 299 297 297 297 298 300
302 300 300 298 297 296 297 296 296 296 296 295 295 296 296 298 297 297 298 300 300 300
300 299 298 297 296 296 296 295 295 295 295 295 296 295 295 297 296 296 297 299 299 299
298 297 296 295 295 295 294 293 293 292 293 294 295 296 295 295 297 296 296 295 295 296
Wind_Speed
13 9 8 7 7 6 5 5 4 5 5 5 5 5 4 3 4 4 5 6 5 3
8 11 11 8 7 6 7 5 6 5 5 5 5 5 4 3 4 6 4 4 4 3
8 7 8 8 8 6 5 5 6 6 6 5 4 5 4 3 3 5 3 3 4 5
12 9 7 8 8 7 5 6 5 6 6 5 4 3 4 4 4 5 4 4 5 5
10 8 9 8 7 7 8 5 5 5 5 5 5 4 4 4 3 3 4 4 5 6
8 9 9 10 8 6 7 6 6 5 5 5 4 4 3 2 2 3 3 3 3 6
11 10 9 9 8 8 7 7 6 4 5 4 5 3 2 2 2 3 3 4 5 6
8 6 5 6 6 6 6 6 6 5 4 3 3 2 4 3 1 2 4 5 5 5
10 9 7 7 6 7 7 6 6 5 4 1 1 4 6 2 2 4 5 7 7 6
9 8 7 8 7 7 6 6 6 4 2 1 1 4 2 4 1 4 5 6 6 5
11 10 7 8 8 5 4 4 3 2 2 1 4 5 5 6 4 4 7 7 8 5
11 12 8 8 8 4 4 2 1 2 1 0 4 6 5 6 4 5 7 6 6 3
13 9 8 6 5 3 2 1 3 4 3 5 3 5 5 3 2 5 6 5 4 4
10 10 5 3 3 1 3 4 3 4 5 6 5 5 7 8 5 5 6 6 5 4
Wind_Direction
140 141 130 133 134 131 124 116 113 94 85 84 80 71 74 83 74 75 60 56 48 50
116 131 136 131 129 135 128 123 118 108 102 87 81 81 87 84 92 93 76 56 44 36
120 118 121 128 133 129 121 120 125 113 100 89 82 77 68 81 84 94 82 71 35 19
139 130 137 143 143 135 128 128 119 118 107 94 79 59 72 95 95 97 89 61 32 360
135 140 145 146 153 146 139 126 122 106 93 87 70 49 79 93 94 87 71 44 19 348
146 163 160 166 157 142 132 129 124 118 114 104 102 100 69 61 79 81 64 19 3 329
180 174 172 169 152 142 147 138 126 127 121 113 122 93 98 97 51 20 1 336 328 319
174 145 149 132 134 127 119 118 118 120 95 84 136 153 151 129 137 291 315 308 299 303
143 142 149 126 116 123 126 118 116 108 112 130 161 154 146 159 281 303 300 298 302 303
126 132 125 124 130 120 109 120 116 97 112 173 238 192 282 310 271 291 282 277 274 286
110 99 93 99 93 94 85 79 101 130 233 352 281 269 265 265 260 277 273 265 258 247
80 80 64 80 51 0 74 58 298 257 327 299 295 294 282 288 293 287 281 274 297 250
88 46 67 56 50 320 20 101 301 313 298 292 297 305 319 303 281 290 281 271 273 270
40 78 15 65 123 344 353 326 318 322 295 283 278 285 294 310 308 301 303 296 270 242